Simultaneous Nadir Overpasses (SNOs) Predictions

Prediction of SNOs between AQUA and METOP-A Satellite Orbit:

Table of predicted SNOs for the next 14.0 days since TLE Epoch: 12/16/2017
Index Date (AQUA) Time (AQUA) Lat,Lon (AQUA) SZA (AQUA ) Date (METOP-A) Time (METOP-A) Lat,Lon (METOP-A) SZA (METOP-A ) Distance(km) Time Diff (sec)
1 12/17/2017 09:07:40 73.87, 37.18 97.20 12/17/2017 09:06:29 73.81, 36.33 97.17 27.15 71
2 12/17/2017 09:57:10 -74.09,-155.68 82.57 12/17/2017 09:57:05 -74.11,-155.61 82.55 3.27 5
3 12/17/2017 10:46:38 74.12, 11.89 97.46 12/17/2017 10:47:44 74.13, 11.77 97.47 3.92 66
4 12/20/2017 04:41:58 73.96, 103.41 97.36 12/20/2017 04:40:45 73.92, 103.01 97.35 13.12 73
5 12/20/2017 05:31:26 -74.08, -89.22 82.52 12/20/2017 05:31:24 -74.08, -89.29 82.51 2.22 2
6 12/20/2017 06:20:55 74.16, 78.23 97.58 12/20/2017 06:22:02 74.15, 78.21 97.56 1.53 67
7 12/23/2017 00:16:16 74.00, 169.74 97.42 12/23/2017 00:15:03 73.98, 169.56 97.42 6.10 73
8 12/23/2017 01:05:43 -74.07, -22.77 82.51 12/23/2017 01:05:43 -74.09, -22.85 82.49 3.38 0
9 12/23/2017 01:55:12 74.15, 144.68 97.58 12/23/2017 01:56:21 74.16, 144.64 97.58 1.23 69
10 12/25/2017 19:50:34 74.06,-123.94 97.43 12/25/2017 19:49:21 74.04,-123.89 97.42 2.21 73
11 12/25/2017 20:40:01 -74.13, 43.54 82.51 12/25/2017 20:40:02 -74.10, 43.58 82.53 2.69 1
12 12/25/2017 21:29:29 74.15,-148.89 97.53 12/25/2017 21:30:40 74.17,-148.93 97.53 1.82 71
13 12/28/2017 15:24:50 74.06, -57.52 97.32 12/28/2017 15:23:39 74.05, -57.47 97.32 2.42 71
14 12/28/2017 16:14:17 -74.13, 109.96 82.61 12/28/2017 16:14:20 -74.11, 110.01 82.63 2.90 3




NCC Satellite Simultaneous Nadir Overpasses (SNOs) Prediction Service
